OK1FET-4 Weather Reports


Display with metric or nautical units.
time (UTC)temp
F
wind
direction
speed
MPH
gust
MPH
rain 1hr
in
rain 24hr
in
rain mn
in
humidity
%
barometer
mb
20201029222821 44 225 9.0 0.0 0.00 0.00 0.00 1017.2
20201029221854 44 225 14.0 0.0 0.00 0.00 0.00 1017.2
20201029220917 44 193 9.0 0.0 0.00 0.00 0.00 1017.3
20201029215945 44 225 11.0 0.0 0.00 0.00 0.00 1017.3
20201029215031 44 180 7.0 0.0 0.00 0.00 0.00 1017.1
20201029213114 44 225 13.0 0.0 0.00 0.00 0.00 1017.1
20201029212133 44 225 16.0 0.0 0.00 0.00 0.00 1017.0
20201029211204 44 197 5.0 0.0 0.00 0.00 0.00 1017.0
20201029210320 44 225 10.0 0.0 0.00 0.00 0.00 1017.1
20201029205300 44 180 2.0 0.0 0.00 0.00 0.00 1017.1
20201029204320 44 225 4.0 0.0 0.00 0.00 0.00 1017.1
20201029203339 42 193 6.0 0.0 0.00 0.00 0.00 1016.9
20201029202415 42 180 6.0 0.0 0.00 0.00 0.00 1017.0
20201029201449 44 180 4.0 0.0 0.00 0.00 0.00 1016.9
20201029200510 44 180 5.0 0.0 0.00 0.00 0.00 1016.9
20201029194619 44 207 9.0 0.0 0.00 0.00 0.00 1016.8
20201029193638 42 188 4.0 0.0 0.00 0.00 0.00 1016.0
20201029192652 44 180 4.0 0.0 0.00 0.00 0.00 1016.6
20201029191624 44 225 1.0 0.0 0.00 0.00 0.00 1016.4
20201029190651 44 225 5.0 0.0 0.00 0.00 0.00 1016.5
20201029185720 44 211 5.0 0.0 0.00 0.00 0.00 1016.3
20201029184738 44 211 5.0 0.0 0.00 0.00 0.00 1016.2
20201029183812 44 211 17.0 0.0 0.00 0.00 0.00 1016.2
20201029182851 44 188 6.0 0.0 0.00 0.00 0.00 1016.1
20201029181909 44 270 3.0 0.0 0.00 0.00 0.00 1016.0
20201029180939 44 225 5.0 0.0 0.00 0.00 0.00 1016.0
20201029180023 44 225 3.0 0.0 0.00 0.00 0.00 1016.0
20201029175032 44 180 6.0 0.0 0.00 0.00 0.00 1016.0
20201029174056 44 225 8.0 0.0 0.00 0.00 0.00 1015.9
20201029173127 44 225 10.0 0.0 0.00 0.00 0.00 1015.8
20201029172151 44 225 9.0 0.0 0.00 0.00 0.00 1015.7
20201029170256 44 225 8.0 0.0 0.00 0.00 0.00 1015.5
20201029165320 46 225 6.0 0.0 0.00 0.00 0.00 1015.3
20201029164344 46 225 5.0 0.0 0.00 0.00 0.00 1015.3
20201029163405 46 220 8.0 0.0 0.00 0.00 0.00 1015.1
20201029162447 46 225 15.0 0.0 0.00 0.00 0.00 1014.9
20201029161518 46 225 10.0 0.0 0.00 0.00 0.00 1014.9
20201029160540 46 233 7.0 0.0 0.00 0.00 0.00 1014.9
20201029155611 48 225 14.0 0.0 0.00 0.00 0.00 1014.8
20201029154637 48 225 10.0 0.0 0.00 0.00 0.00 1014.8
20201029153556 48 225 6.0 0.0 0.00 0.00 0.00 1014.7
20201029152620 50 225 6.0 0.0 0.00 0.00 0.00 1014.6
20201029151651 51 225 8.0 0.0 0.00 0.00 0.00 1014.3
20201029150728 51 225 10.0 0.0 0.00 0.00 0.00 1014.3
20201029145748 53 225 15.0 0.0 0.00 0.00 0.00 1014.1
20201029144457 53 270 8.0 0.0 0.00 0.00 0.00 1014.1
20201029142541 53 242 19.0 0.0 0.00 0.00 0.00 1013.9
20201029141644 53 225 20.0 0.0 0.00 0.00 0.00 1013.8
20201029135711 51 225 17.0 0.0 0.00 0.00 0.00 1013.7
20201029134741 51 225 13.0 0.0 0.00 0.00 0.00 1013.5
20201029132824 48 252 8.0 0.0 0.00 0.00 0.00 1013.3
20201029130934 46 270 12.0 0.0 0.00 0.00 0.00 1013.1
20201029123026 50 270 10.0 0.0 0.00 0.00 0.00 1012.4
20201029122026 51 225 18.0 0.0 0.00 0.00 0.00 1012.4
20201029121100 51 225 16.0 0.0 0.00 0.00 0.00 1012.2
20201029120028 51 225 28.0 0.0 0.00 0.00 0.00 1011.7
20201029115043 51 220 14.0 0.0 0.00 0.00 0.00 1012.1
20201029111722 50 225 18.0 0.0 0.00 0.00 0.00 1011.8
20201029105114 50 256 3.0 0.0 0.00 0.00 0.00 1011.7
20201029104145 50 216 9.0 0.0 0.00 0.00 0.00 1011.6
20201029103213 51 225 9.0 0.0 0.00 0.00 0.00 1011.6
20201029102044 51 225 18.0 0.0 0.00 0.00 0.00 1011.3
20201029101049 51 247 7.0 0.0 0.00 0.00 0.00 1011.2
20201029095140 53 256 16.0 0.0 0.00 0.00 0.00 1010.9
20201029094100 55 238 3.0 0.0 0.00 0.00 0.00 1011.0
20201029093029 55 225 9.0 0.0 0.00 0.00 0.00 1011.0
20201029091927 53 261 13.0 0.0 0.00 0.00 0.00 1010.9
20201029085923 53 216 9.0 0.0 0.00 0.00 0.00 1010.9
20201029084952 53 225 6.0 0.0 0.00 0.00 0.00 1011.1
20201029083103 51 225 5.0 0.0 0.00 0.00 0.00 1010.9
20201029081958 51 220 12.0 0.0 0.00 0.00 0.00 1010.8
20201029081039 51 225 4.0 0.0 0.00 0.00 0.00 1010.9
20201029080101 51 225 10.0 0.0 0.00 0.00 0.00 1010.8
20201029075135 51 261 3.0 0.0 0.00 0.00 0.00 1010.8
20201029073948 51 225 1.0 0.0 0.00 0.00 0.00 1010.8
20201029072913 51 135 11.0 0.0 0.00 0.00 0.00 1010.7
20201029071940 50 166 5.0 0.0 0.00 0.00 0.00 1010.6
20201029071021 50 220 7.0 0.0 0.00 0.00 0.00 1010.4
20201029070039 50 180 18.0 0.0 0.00 0.00 0.00 1010.4
20201029065054 50 139 16.0 0.0 0.00 0.00 0.00 1010.4
20201029064135 50 90 9.0 0.0 0.00 0.00 0.00 1010.3
20201029063153 50 135 7.0 0.0 0.00 0.00 0.00 1010.2
20201029062228 50 180 14.0 0.0 0.00 0.00 0.00 1010.3
20201029061241 50 130 4.0 0.0 0.00 0.00 0.00 1010.2
20201029060307 50 135 7.0 0.0 0.00 0.00 0.00 1010.1
20201029055336 50 180 7.0 0.0 0.00 0.00 0.00 1010.2
20201029054356 50 180 9.0 0.0 0.00 0.00 0.00 1010.1
20201029053433 50 180 11.0 0.0 0.00 0.00 0.00 1010.0
20201029052511 50 225 8.0 0.0 0.00 0.00 0.00 1010.0
20201029051528 50 270 4.0 0.0 0.00 0.00 0.00 1009.9
20201029050551 48 135 7.0 0.0 0.00 0.00 0.00 1009.9
20201029045527 48 135 12.0 0.0 0.00 0.00 0.00 1009.9
20201029044541 48 90 14.0 0.0 0.00 0.00 0.00 1009.9
20201029043607 48 130 7.0 0.0 0.00 0.00 0.00 1009.9
20201029042632 48 121 7.0 0.0 0.00 0.00 0.00 1010.0
20201029041702 48 90 9.0 0.0 0.00 0.00 0.00 1010.2
20201029040724 48 112 19.0 0.0 0.00 0.00 0.00 1010.1
20201029034716 48 98 10.0 0.0 0.00 0.00 0.00 1010.1
20201029033413 48 90 10.0 0.0 0.00 0.00 0.00 1010.2
20201029032125 48 90 21.0 0.0 0.00 0.00 0.00 1010.3
20201029031053 48 90 10.0 0.0 0.00 0.00 0.00 1010.3
20201029030023 48 90 13.0 0.0 0.00 0.00 0.00 1010.3
20201029023818 48 90 18.0 0.0 0.00 0.00 0.00 1010.7
20201029022843 48 90 13.0 0.0 0.00 0.00 0.00 1010.6
20201029021248 48 130 17.0 0.0 0.00 0.00 0.00 1010.7
20201029020257 48 135 16.0 0.0 0.00 0.00 0.00 1011.0
20201029015111 48 135 16.0 0.0 0.00 0.00 0.00 1011.1
20201029014030 48 112 17.0 0.0 0.00 0.00 0.00 1011.1
20201029012951 48 135 12.0 0.0 0.00 0.00 0.00 1011.2
20201029011909 50 135 8.0 0.0 0.00 0.00 0.00 1011.1
20201029010107 50 112 10.0 0.0 0.00 0.00 0.00 1011.3
20201029004756 50 135 10.0 0.0 0.00 0.00 0.00 1011.3
20201029003217 50 90 17.0 0.0 0.00 0.00 0.00 1011.4
20201029001847 50 135 7.0 0.0 0.00 0.00 0.00 1011.4
20201029000757 50 135 12.0 0.0 0.00 0.00 0.00 1011.3
20201028234402 50 135 13.0 0.0 0.00 0.00 0.00 1011.5
20201028231429 50 135 9.0 0.0 0.00 0.00 0.00 1011.8
20201028225914 50 90 19.0 0.0 0.00 0.00 0.00 1011.9
20201028224945 50 135 8.0 0.0 0.00 0.00 0.00 1011.9
20201028223756 50 135 13.0 0.0 0.00 0.00 0.00 1012.0